Location: ???? ????
(41.4149°N, 22.8816°E)
Time: 14:48:28
(UTC+00:00)

ARIANE 5 R/B - Pass Details

Date: 14 July 2020
Orbit: 749 x 795 km, 98.6° (Epoch: 03 August)

Event Time Altitude Azimuth Distance (km) Brightness Sun altitude
Rises 01:12:04 0° 15° (NNE) 3,236 7.0 -17.1°
Reaches altitude 10° 01:14:22 10° 17° (NNE) 2,313 6.1 -16.9°
Maximum altitude 01:19:28 75° 103° (ESE) 803 2.6 -16.3°
Enters shadow 01:23:10 19° 187° (S) 1,766 3.9 -15.8°
